Probability
11 6 2 1 1 0 0 0 0 0 0 0 0 0 0 0 0 0 0 0 0 0 2 5 7 7 5 5 5 4 5 3 1 0 0 0 2 4 4 3 2 1 0 1 2 4 4 5 5
5 4 3 1 0 0 0 0 0 0 0 0 0 0 0 0 0 0 0 0 0 0 2 4 6 7 5 4 4 4 3 3 1 0 0 1 2 3 3 3 2 1 0 1 2 4 5 6 6
1 2 3 2 1 0 0 0 0 0 0 0 0 0 0 0 0 0 1 1 1 0 1 2 6 8 6 5 5 4 3 2 1 1 1 2 2 2 2 3 3 2 1 1 1 3 5 6 5
0 1 2 2 2 1 0 0 0 0 0 0 0 0 0 0 0 0 1 1 1 0 0 1 5 7 7 6 6 5 4 3 3 2 2 2 1 1 1 2 3 3 1 0 0 2 4 4 4
0 0 0 1 1 0 0 0 1 1 0 0 0 0 0 0 0 0 0 1 1 1 1 2 4 5 6 7 7 6 5 4 4 3 2 1 1 2 2 2 4 4 3 1 1 1 2 3 3
0 0 0 0 0 0 0 1 2 1 0 0 0 0 0 0 0 0 0 1 1 1 2 3 3 4 6 7 8 6 4 4 4 4 3 2 2 3 3 3 5 6 6 4 3 2 1 1 2
1 0 0 0 0 0 0 1 1 1 0 0 0 0 0 0 0 0 0 0 0 1 2 3 3 4 4 6 7 5 4 3 3 4 4 3 3 3 3 4 6 7 7 7 5 3 2 1 1
2 1 0 0 0 0 0 0 0 0 0 0 0 0 0 0 0 0 0 0 0 0 1 2 2 2 1 3 5 4 3 3 3 4 5 4 3 2 3 4 6 6 7 7 7 6 5 3 3
2 1 0 0 0 0 0 0 0 1 1 1 1 1 1 1 1 1 0 0 0 0 0 1 1 1 0 1 3 3 2 2 1 2 3 3 1 1 1 2 4 5 6 6 7 8 8 6 4
1 0 0 0 0 0 0 0 1 2 3 3 4 4 3 2 2 1 0 0 0 0 0 0 0 0 0 1 2 1 1 1 0 1 1 1 0 0 0 1 3 4 5 4 4 6 8 6 4
0 0 0 0 0 0 0 1 3 4 4 4 6 5 3 1 1 1 1 2 1 1 0 0 0 0 0 1 2 1 0 0 1 1 1 0 0 0 0 1 2 3 2 1 1 2 3 2 1
0 0 0 0 0 0 0 1 3 6 7 7 6 5 3 2 2 2 3 3 2 2 1 0 0 0 0 1 1 0 0 1 2 2 2 1 0 0 0 0 1 1 1 0 0 0 0 0 0
0 0 0 0 0 0 0 1 3 7 10 10 8 6 4 3 3 3 3 3 2 2 1 0 0 0 0 0 0 0 0 1 2 3 3 2 1 0 0 0 0 0 0 0 0 0 0 0 0
0 0 0 0 0 0 0 1 3 7 10 11 9 6 5 4 3 3 3 2 1 1 1 0 0 0 0 0 0 0 0 0 1 3 3 2 1 0 0 0 0 0 0 0 0 0 0 0 0
0 0 0 0 0 0 0 1 2 5 9 10 8 5 4 4 3 3 3 3 1 0 0 1 1 0 0 0 0 0 0 0 1 2 3 2 1 0 0 0 0 0 0 0 0 0 0 0 0
0 0 0 0 0 0 0 0 1 4 8 9 8 5 3 4 5 5 5 4 2 1 1 2 2 1 0 0 0 0 0 0 0 1 1 2 1 0 0 0 0 0 0 0 0 0 0 0 0
0 0 0 0 0 0 0 0 1 3 6 9 9 6 4 4 7 8 7 5 3 2 2 3 2 1 0 0 1 1 1 1 1 1 1 1 1 0 0 0 0 0 0 0 1 1 1 0 0
0 0 0 0 0 0 0 0 1 2 5 9 10 8 6 5 6 8 8 7 5 3 3 3 1 0 1 1 2 2 2 1 1 1 0 0 1 1 0 0 0 0 0 0 2 2 1 0 0
0 0 0 0 0 0 0 0 0 2 5 9 10 9 7 5 5 8 10 9 8 6 5 3 1 1 1 2 3 3 2 1 1 0 0 1 1 1 1 1 1 1 1 1 1 1 1 0 0
0 0 0 0 0 0 0 0 0 1 5 8 10 11 10 7 5 8 12 12 11 10 7 4 3 2 3 4 4 5 4 2 1 1 1 1 1 1 1 2 3 2 2 2 1 0 0 0 0
0 0 0 0 0 0 0 0 1 2 4 8 11 12 12 10 7 8 11 12 13 12 9 7 5 4 4 5 7 8 7 5 3 3 2 1 0 0 1 3 3 3 3 2 1 0 0 0 0
0 0 0 0 0 0 0 1 2 3 5 7 9 11 11 10 8 7 8 10 12 10 8 7 6 6 6 7 9 10 10 8 6 5 3 1 1 1 2 3 3 3 3 3 2 2 1 0 0
1 1 0 0 0 0 0 1 2 4 6 7 9 11 11 10 8 7 7 8 9 9 7 6 6 6 7 8 10 11 11 10 7 5 4 3 2 3 3 3 3 3 3 3 3 2 1 0 0
2 1 0 0 0 0 0 1 2 4 5 6 8 11 12 10 8 7 6 7 8 9 9 9 9 8 7 8 10 11 11 9 7 4 3 3 4 4 4 4 3 3 4 4 2 1 1 0 0
1 1 0 0 0 0 0 1 2 4 5 7 9 12 11 8 7 6 7 7 8 9 12 15 16 12 9 9 10 10 10 8 5 3 3 4 5 6 6 5 5 5 4 2 1 0 0 0 0
0 0 0 0 0 0 0 1 2 4 6 9 11 11 9 7 5 5 7 9 10 10 14 19 21 19 14 11 10 9 8 6 4 3 4 5 5 6 6 6 6 6 4 2 1 1 1 0 0
0 0 0 0 0 0 0 1 2 3 5 8 11 11 9 7 5 4 6 11 13 12 14 19 22 21 18 14 11 8 6 4 3 3 4 4 4 4 5 4 5 5 4 3 2 2 1 0 0
0 0 0 0 0 0 0 1 3 4 4 6 9 10 11 9 7 6 7 11 15 15 15 18 20 19 18 15 12 8 5 4 4 4 5 5 4 3 3 3 3 3 3 2 2 1 1 0 0
0 0 0 0 0 0 0 1 3 5 5 7 8 9 12 11 9 7 8 10 14 16 17 19 20 20 19 16 13 11 9 6 4 5 5 4 3 1 1 2 2 1 1 1 1 0 0 0 0
0 0 0 0 0 0 1 2 4 5 7 8 9 9 11 12 9 7 7 9 12 16 20 23 22 23 22 18 15 15 13 8 4 4 4 2 1 0 1 2 2 1 0 0 0 0 0 0 0
Wind_Speed
11 8 4 1 2 3 3 3 6 7 6 7 9 10 8 6 4 4 2 7 7 5 4 6 8 9 9 10 10 10 10 10 10 10 10 11 12 12 12 11 11 10 11 11 12 12 14 15 15
7 6 2 1 3 3 3 4 9 9 8 9 10 11 9 7 6 6 4 6 7 6 4 6 9 9 10 10 10 10 10 10 9 9 10 11 11 11 11 11 10 10 11 12 12 12 13 14 14
6 4 1 2 2 3 4 5 9 10 9 8 6 7 6 5 5 4 5 7 6 4 4 6 10 10 10 10 10 10 9 9 9 9 10 10 10 10 10 10 10 10 11 12 12 11 13 14 14
3 1 2 3 3 2 6 7 9 10 9 8 8 7 5 4 4 6 8 8 6 4 3 6 12 11 11 10 10 10 9 9 10 9 9 10 10 10 10 10 11 10 11 11 11 11 13 13 12
1 3 3 3 3 4 7 8 9 10 7 8 10 8 4 3 8 9 8 7 6 4 3 5 11 11 10 10 9 9 9 9 9 9 8 8 10 10 10 10 11 11 11 11 10 11 12 12 11
2 3 3 3 4 6 6 9 13 14 13 10 10 8 3 4 8 8 7 6 6 5 4 5 11 11 9 9 9 8 8 8 8 7 7 8 9 10 10 10 11 11 11 11 11 11 11 11 10
3 2 2 3 5 5 6 8 11 11 11 7 7 6 3 4 6 7 7 6 5 5 5 4 5 6 8 8 8 8 7 7 7 7 7 7 8 10 10 10 11 11 11 11 11 11 11 10 9
3 3 1 2 6 5 6 7 9 11 9 9 6 7 5 4 6 7 7 6 6 5 4 4 3 3 3 3 6 7 7 6 6 6 7 7 7 9 10 9 11 11 11 11 11 10 10 9 9
3 4 2 3 6 6 8 10 7 8 10 6 6 7 8 9 9 8 7 5 5 5 3 3 3 3 2 2 4 5 6 5 4 4 5 5 3 3 5 8 10 11 11 10 10 10 9 9 8
4 4 6 5 7 8 8 11 8 9 11 10 9 9 10 9 9 8 7 6 5 4 3 3 4 3 2 2 2 2 2 2 1 1 2 2 2 2 4 6 9 10 10 10 9 9 8 6 3
4 6 4 5 8 9 9 8 6 11 9 12 13 11 9 9 7 7 6 6 5 4 4 3 3 3 2 2 2 1 1 1 1 2 2 2 2 2 2 2 4 4 6 4 5 4 3 3 3
3 4 6 6 7 9 10 8 7 8 10 12 13 12 10 9 8 7 6 5 5 5 4 4 3 3 2 2 2 2 1 1 1 2 2 2 2 2 2 2 3 3 2 3 3 2 3 3 3
3 3 4 7 7 9 11 9 9 9 12 12 12 11 10 9 8 6 6 6 6 5 4 4 4 3 3 3 2 2 2 1 1 2 2 3 2 2 2 2 3 3 3 3 4 3 3 3 3
2 3 4 7 8 10 14 8 7 10 13 12 11 9 9 8 8 6 6 6 5 5 4 3 4 3 3 3 2 2 1 1 1 1 2 3 3 3 3 3 3 3 3 3 4 4 4 3 3
2 4 3 5 6 7 12 6 7 12 13 12 11 10 9 8 9 8 8 7 6 5 5 4 4 4 3 2 2 2 1 2 2 2 2 3 3 3 3 3 3 3 3 4 4 4 3 3 3
3 3 1 3 5 5 9 6 7 11 13 11 10 10 9 8 9 8 8 7 6 6 5 4 5 4 3 2 2 1 2 2 2 2 2 3 4 4 3 3 3 3 3 3 3 3 3 3 3
2 1 2 3 5 6 6 7 9 10 12 11 9 8 9 8 8 8 9 8 7 6 6 5 5 4 3 2 2 2 2 2 2 2 2 3 3 4 4 3 3 3 3 3 3 3 3 3 3
4 3 3 4 5 6 6 7 11 11 12 11 10 9 8 10 9 9 9 8 7 6 6 6 5 4 3 2 2 2 3 2 2 2 3 3 3 4 4 3 3 4 3 3 3 3 3 3 3
6 3 3 5 6 6 7 9 12 11 11 11 11 10 9 9 8 9 9 9 7 6 6 5 5 3 3 2 2 2 2 1 2 2 3 3 3 4 4 4 3 3 3 3 3 3 4 2 3
4 3 2 2 5 6 6 6 9 12 14 15 15 13 11 8 7 8 8 8 8 7 6 5 5 4 3 2 2 2 2 2 2 2 3 3 3 3 4 4 3 3 3 3 3 3 3 2 2
4 6 6 4 1 4 6 1 4 6 7 10 12 12 13 14 12 10 10 8 9 8 7 6 5 4 3 3 3 3 3 3 2 2 2 2 2 3 3 3 3 3 3 2 2 3 4 2 1
4 6 6 4 4 1 4 3 5 5 6 9 10 11 12 12 11 11 11 10 10 9 7 6 5 5 4 4 4 4 4 3 2 2 2 2 2 2 3 3 3 2 2 2 2 2 3 3 2
6 4 4 3 3 1 1 4 5 4 7 10 11 13 13 12 13 13 12 12 10 9 8 6 6 5 4 4 5 5 4 3 2 2 3 2 2 2 3 3 3 2 1 2 2 2 2 2 2
2 4 5 5 5 1 3 4 5 6 12 11 12 13 14 13 14 13 11 10 9 9 8 7 7 5 5 4 4 5 5 5 4 3 3 2 1 1 2 3 2 2 2 2 2 2 2 1 2
4 7 4 5 4 5 3 3 8 9 10 13 15 15 14 14 14 13 12 11 10 10 9 8 8 6 5 5 5 5 5 5 5 4 4 3 2 1 1 2 2 1 2 2 2 2 1 1 2
3 9 9 6 5 4 3 3 7 7 6 8 11 13 14 14 13 14 14 13 12 12 11 9 9 7 6 6 5 4 5 4 3 4 3 3 2 2 2 2 2 2 2 2 2 2 1 1 1
2 2 8 8 3 1 3 4 5 1 2 5 8 11 14 15 14 13 13 12 12 12 11 11 10 7 7 6 6 5 5 4 4 4 3 2 2 2 2 3 3 2 2 2 2 2 1 1 1
6 6 5 6 5 2 3 3 5 3 4 5 7 9 11 12 12 12 12 12 12 11 10 10 10 9 7 7 6 6 5 5 5 4 4 3 3 3 3 3 3 3 3 3 2 2 2 2 1
1 2 5 4 6 7 3 7 6 9 9 8 9 10 11 12 13 12 12 12 11 10 10 10 9 8 7 7 6 5 5 5 5 4 4 4 4 4 4 4 3 3 3 2 3 2 2 2 2
4 5 6 5 3 5 5 7 4 7 7 8 8 9 10 11 11 11 11 10 10 11 10 10 9 9 8 7 7 6 5 5 5 5 4 4 4 4 4 4 4 3 3 2 3 2 2 2 2
Wind_Direction
165 161 157 156 48 52 63 71 90 75 62 62 73 79 77 66 93 132 167 141 138 145 152 140 132 127 124 124 122 120 118 116 116 117 118 122 124 124 125 125 126 129 129 133 134 133 133 132 131
162 158 155 65 72 78 69 91 89 89 109 105 82 79 75 67 82 112 128 144 145 148 153 143 137 134 130 127 125 123 121 120 122 122 122 125 127 127 128 130 131 132 133 136 137 139 141 138 136
167 174 126 74 79 126 116 105 107 101 96 88 83 65 68 85 97 121 147 150 137 138 148 145 141 137 133 131 128 125 124 123 125 128 129 131 132 132 134 135 134 134 134 136 136 141 145 140 139
161 115 55 78 90 118 123 122 114 102 78 71 87 71 64 88 109 130 137 138 123 122 140 144 142 139 137 135 132 129 128 126 127 131 135 137 137 135 136 137 137 138 137 138 136 135 142 141 142
104 81 66 73 88 98 106 117 112 101 82 82 88 94 80 65 107 123 131 130 127 131 138 139 138 137 136 136 136 135 133 129 129 131 132 138 141 140 139 139 140 140 139 138 136 134 138 141 142
72 71 76 85 89 85 91 106 102 98 103 101 99 101 92 112 119 128 124 123 125 127 124 135 137 135 136 137 138 139 136 133 133 135 136 143 145 146 145 144 145 146 146 147 147 145 144 145 145
111 91 118 127 111 103 113 116 109 115 115 112 117 101 112 126 131 126 119 118 116 114 115 128 138 138 140 145 146 148 145 144 142 143 145 150 150 150 151 151 153 155 155 155 154 152 150 150 149
160 106 89 130 122 117 118 109 116 115 110 123 114 116 146 154 126 117 108 105 103 105 113 123 128 131 140 148 153 156 155 154 153 157 159 160 159 156 158 157 159 161 161 160 158 156 156 158 157
133 92 159 164 137 132 121 107 106 97 107 107 91 117 139 134 121 110 100 93 98 104 108 119 126 133 143 151 154 156 160 160 153 160 160 160 155 157 161 165 166 167 167 163 160 161 161 162 160
130 139 194 173 150 141 128 121 123 104 101 101 102 109 123 125 123 119 118 116 114 119 121 116 124 140 138 132 121 134 143 139 131 141 141 138 143 157 154 161 167 170 169 165 162 162 165 160 148
150 163 170 147 145 132 121 118 111 119 124 141 142 140 135 129 122 123 127 129 133 132 123 113 122 130 130 118 128 126 118 130 135 132 144 142 135 140 142 145 154 160 160 156 154 148 148 142 140
134 166 154 147 134 125 126 122 110 126 148 150 146 144 139 135 135 137 135 131 123 118 121 116 117 108 109 113 112 115 116 126 126 130 144 141 137 142 152 155 152 146 147 146 143 141 142 133 141
112 143 139 136 128 128 118 117 117 127 134 138 140 139 142 142 143 142 137 131 124 123 126 124 111 106 99 97 109 114 128 140 145 125 130 130 134 145 154 151 146 145 146 149 148 148 137 133 136
178 127 122 133 130 125 117 118 109 137 140 142 144 145 148 147 146 136 134 133 133 132 133 126 110 112 107 95 95 109 128 136 126 118 122 126 130 131 136 135 133 140 143 143 140 139 134 129 122
99 91 92 144 134 133 113 103 138 152 146 147 151 153 154 151 148 148 153 148 146 143 140 130 122 109 101 92 87 93 115 124 117 110 108 113 119 121 122 121 123 135 133 127 124 123 118 115 110
57 76 136 197 143 147 115 142 167 160 151 153 158 159 157 155 155 156 155 150 150 143 138 139 126 111 100 92 83 68 87 103 110 105 98 99 104 115 114 114 121 130 126 123 126 128 121 116 114
33 120 200 207 178 149 122 156 174 170 159 160 158 163 161 156 154 157 156 155 152 145 139 131 126 125 115 97 80 73 78 91 103 99 94 95 98 105 112 114 120 120 118 120 138 135 139 135 130
227 199 200 197 202 154 143 166 170 175 168 166 163 167 168 165 167 164 157 152 148 143 138 133 131 131 123 102 78 66 64 70 83 93 97 100 97 99 103 108 113 115 119 119 120 129 127 138 142
188 185 203 211 188 158 167 165 172 176 174 170 172 176 178 175 169 161 157 152 145 141 137 139 136 138 125 106 102 95 87 83 81 92 99 99 102 102 102 108 109 114 121 130 130 125 116 116 120
183 179 208 228 184 153 160 171 180 180 184 180 178 179 179 171 165 162 156 153 152 151 147 145 148 152 152 143 139 130 129 120 112 87 79 83 96 101 109 109 119 120 119 118 126 125 119 140 149
218 191 194 202 111 96 117 111 191 197 190 182 181 179 179 175 171 168 162 160 158 159 160 157 158 157 160 146 114 98 82 71 69 69 76 71 91 97 104 112 117 113 124 138 142 141 138 148 176
234 219 179 159 108 177 145 174 242 195 182 184 183 179 179 176 167 168 165 165 168 169 166 160 162 161 159 143 132 129 129 127 139 132 114 86 87 101 106 111 111 108 122 137 160 150 150 146 164
222 205 162 154 130 97 82 129 259 191 194 199 189 182 180 177 173 172 170 170 170 169 166 163 159 160 158 146 144 138 130 136 127 115 108 101 86 91 106 111 109 115 128 135 125 121 129 145 156
165 84 48 46 66 19 242 143 246 211 202 192 186 181 178 177 176 174 170 165 167 168 164 162 159 162 158 148 142 143 141 139 129 125 127 126 106 95 102 116 121 128 133 128 132 124 121 130 140
96 101 51 12 12 259 254 155 233 231 206 186 181 183 181 177 175 173 171 170 171 170 169 167 164 166 166 157 151 152 153 150 148 149 152 149 139 128 136 128 130 131 133 135 130 118 126 141 147
201 142 154 179 205 267 315 217 247 237 204 178 173 175 176 178 178 176 177 177 176 174 171 169 168 168 169 166 164 157 153 148 147 150 152 157 159 165 160 140 134 128 123 120 118 116 138 128 144
177 174 167 140 150 141 277 285 306 296 141 153 162 169 177 181 180 178 177 177 176 174 174 172 170 169 172 171 162 154 154 151 152 152 148 154 159 157 149 134 122 111 103 103 108 100 95 91 86
167 159 98 115 142 212 275 248 232 216 187 171 171 176 180 177 176 177 178 178 178 175 172 170 171 173 171 167 167 164 162 161 158 151 152 153 150 146 135 128 121 111 105 103 96 89 75 76 49
69 96 112 124 148 157 218 260 225 196 191 181 184 178 175 177 178 178 180 179 173 168 168 170 173 170 169 170 165 159 158 156 150 149 155 154 145 142 140 141 131 123 119 114 107 101 93 87 56
176 170 144 147 205 163 168 257 249 183 184 176 178 178 173 174 173 172 168 166 166 167 169 170 172 173 175 170 162 161 158 154 155 157 158 156 147 144 143 140 134 136 131 122 122 124 109 105 89